N5295M KMTH-MYGF

Flight info

Callsign N5295M
Flight time 1h 13m
Altitude 3500
Route 250907N0802328W 251412N0790844W DCT ZBV DCT MAYKO DCT ZFP
Aircraft M20R/L-BDFGLORWY/S

Departure

Time 2026-05-05 16:44
Airport Florida Keys Marathon International Airport (KMTH)

Arrival

Time 2026-05-05 17:57
Airport Grand Bahama International Airport (MYGF)
Time Latitude Longitude Altitude Speed Heading
2026-05-05 16:17 24.72689 -81.04622 8 ft 0 kts 249°
2026-05-05 16:29 24.72687 -81.04629 8 ft 4 kts 260°
2026-05-05 16:29 24.72690 -81.04673 8 ft 10 kts 248°
2026-05-05 16:30 24.72680 -81.04744 8 ft 10 kts 322°
2026-05-05 16:30 24.72676 -81.04833 8 ft 18 kts 248°
2026-05-05 16:30 24.72618 -81.04982 8 ft 23 kts 247°
2026-05-05 16:30 24.72558 -81.05139 8 ft 22 kts 248°
2026-05-05 16:31 24.72488 -81.05323 9 ft 27 kts 247°
2026-05-05 16:31 24.72417 -81.05505 9 ft 24 kts 247°
2026-05-05 16:31 24.72358 -81.05664 9 ft 21 kts 247°
2026-05-05 16:31 24.72324 -81.05750 8 ft 0 kts 246°
2026-05-05 16:42 24.72315 -81.05788 8 ft 12 kts 284°
2026-05-05 16:42 24.72371 -81.05791 8 ft 12 kts 67°
2026-05-05 16:43 24.72453 -81.05572 10 ft 52 kts 68°
2026-05-05 16:43 24.72635 -81.05079 42 ft 80 kts 68°
2026-05-05 16:43 24.72826 -81.04480 255 ft 85 kts 70°
2026-05-05 16:43 24.72996 -81.03833 542 ft 90 kts 75°
2026-05-05 16:44 24.73134 -81.03111 763 ft 100 kts 77°
2026-05-05 16:44 24.73272 -81.02339 996 ft 107 kts 78°
2026-05-05 16:44 24.73427 -81.01488 1148 ft 120 kts 78°
2026-05-05 16:44 24.73649 -81.00569 1277 ft 129 kts 71°
2026-05-05 16:45 24.73960 -80.99612 1356 ft 137 kts 71°
2026-05-05 16:45 24.74262 -80.98573 1338 ft 148 kts 73°
2026-05-05 16:45 24.74563 -80.97484 1338 ft 154 kts 73°
2026-05-05 16:45 24.74888 -80.96341 1316 ft 158 kts 72°
2026-05-05 16:46 24.75245 -80.95195 1386 ft 159 kts 69°
2026-05-05 16:46 24.75621 -80.94028 1371 ft 166 kts 68°
2026-05-05 16:46 24.76048 -80.92845 1424 ft 166 kts 67°
2026-05-05 16:46 24.76493 -80.91695 1522 ft 163 kts 66°
2026-05-05 16:47 24.76963 -80.90547 1540 ft 165 kts 63°
2026-05-05 16:47 24.77461 -80.89403 1618 ft 166 kts 63°
2026-05-05 16:47 24.77986 -80.88277 1723 ft 165 kts 62°
2026-05-05 16:47 24.78511 -80.87134 1662 ft 171 kts 63°
2026-05-05 16:48 24.79035 -80.85952 1666 ft 177 kts 62°
2026-05-05 16:48 24.79576 -80.84761 1921 ft 170 kts 61°
2026-05-05 16:48 24.80125 -80.83635 2036 ft 167 kts 62°
2026-05-05 16:48 24.80607 -80.82437 1934 ft 175 kts 69°
2026-05-05 16:49 24.81025 -80.81193 1956 ft 171 kts 68°
2026-05-05 16:49 24.81474 -80.79990 1935 ft 172 kts 66°
2026-05-05 16:49 24.81918 -80.78778 1954 ft 169 kts 67°
2026-05-05 16:49 24.82361 -80.77585 1926 ft 170 kts 64°
2026-05-05 16:50 24.82852 -80.76388 1855 ft 172 kts 64°
2026-05-05 16:50 24.83382 -80.75217 1869 ft 169 kts 59°
2026-05-05 16:50 24.84034 -80.74138 1817 ft 170 kts 57°
2026-05-05 16:50 24.84642 -80.73015 1794 ft 171 kts 57°
2026-05-05 16:51 24.85270 -80.71905 1748 ft 171 kts 57°
2026-05-05 16:51 24.85886 -80.70788 1726 ft 170 kts 57°
2026-05-05 16:51 24.86518 -80.69691 1725 ft 169 kts 56°
2026-05-05 16:51 24.87147 -80.68602 1669 ft 171 kts 55°
2026-05-05 16:52 24.87809 -80.67511 1626 ft 171 kts 56°
2026-05-05 16:52 24.88472 -80.66429 1585 ft 170 kts 54°
2026-05-05 16:52 24.89195 -80.65399 1527 ft 170 kts 49°
2026-05-05 16:52 24.89921 -80.64362 1487 ft 171 kts 53°
2026-05-05 16:53 24.90631 -80.63316 1485 ft 170 kts 52°
2026-05-05 16:53 24.91331 -80.62275 1458 ft 170 kts 53°
2026-05-05 16:53 24.92022 -80.61211 1385 ft 171 kts 53°
2026-05-05 16:53 24.92709 -80.60151 1383 ft 168 kts 53°
2026-05-05 16:54 24.93377 -80.59094 1358 ft 169 kts 54°
2026-05-05 16:54 24.94058 -80.58025 1337 ft 171 kts 52°
2026-05-05 16:54 24.94784 -80.57004 1389 ft 173 kts 51°
2026-05-05 16:54 24.95584 -80.55994 1366 ft 177 kts 45°
2026-05-05 16:55 24.96453 -80.55033 1313 ft 176 kts 44°
2026-05-05 16:55 24.97342 -80.54119 1284 ft 173 kts 41°
2026-05-05 16:55 24.98263 -80.53257 1219 ft 172 kts 39°
2026-05-05 16:55 24.99162 -80.52429 1249 ft 166 kts 39°
2026-05-05 16:56 25.00096 -80.51712 1219 ft 162 kts 27°
2026-05-05 16:56 25.00966 -80.50904 1148 ft 166 kts 45°
2026-05-05 16:56 25.01758 -80.49990 1198 ft 162 kts 45°
2026-05-05 16:56 25.02463 -80.49074 1305 ft 158 kts 52°
2026-05-05 16:57 25.03122 -80.48109 1324 ft 156 kts 50°
2026-05-05 16:57 25.03875 -80.47246 1306 ft 157 kts 42°
2026-05-05 16:57 25.04686 -80.46435 1304 ft 157 kts 41°
2026-05-05 16:57 25.05505 -80.45625 1283 ft 159 kts 41°
2026-05-05 16:58 25.06338 -80.44835 1298 ft 158 kts 39°
2026-05-05 16:58 25.07130 -80.44027 1393 ft 152 kts 51°
2026-05-05 16:58 25.07535 -80.42988 1499 ft 150 kts 81°
2026-05-05 16:58 25.07630 -80.41865 1652 ft 144 kts 79°
2026-05-05 16:59 25.07847 -80.40813 1818 ft 140 kts 74°
2026-05-05 16:59 25.08104 -80.39774 1928 ft 142 kts 70°
2026-05-05 16:59 25.08448 -80.38734 1988 ft 148 kts 68°
2026-05-05 16:59 25.08808 -80.37641 1984 ft 155 kts 68°
2026-05-05 17:00 25.09247 -80.36547 1983 ft 158 kts 62°
2026-05-05 17:00 25.09739 -80.35454 1985 ft 160 kts 63°
2026-05-05 17:00 25.10162 -80.34307 1989 ft 162 kts 67°
2026-05-05 17:00 25.10578 -80.33136 1990 ft 165 kts 67°
2026-05-05 17:01 25.10998 -80.31952 1992 ft 167 kts 67°
2026-05-05 17:01 25.11429 -80.30760 1995 ft 168 kts 67°
2026-05-05 17:01 25.11789 -80.29553 1993 ft 167 kts 72°
2026-05-05 17:01 25.12103 -80.28319 1994 ft 167 kts 73°
2026-05-05 17:02 25.12325 -80.27065 1993 ft 167 kts 82°
2026-05-05 17:02 25.12391 -80.25785 1996 ft 168 kts 86°
2026-05-05 17:02 25.12468 -80.24500 1996 ft 169 kts 83°
2026-05-05 17:02 25.12595 -80.23208 1996 ft 170 kts 82°
2026-05-05 17:03 25.12732 -80.21916 2003 ft 170 kts 82°
2026-05-05 17:03 25.12867 -80.20639 2122 ft 162 kts 82°
2026-05-05 17:03 25.12996 -80.19430 2341 ft 157 kts 82°
2026-05-05 17:03 25.13120 -80.18249 2590 ft 152 kts 82°
2026-05-05 17:04 25.13241 -80.17101 2851 ft 149 kts 82°
2026-05-05 17:04 25.13360 -80.15979 3121 ft 145 kts 82°
2026-05-05 17:04 25.13473 -80.14902 3428 ft 138 kts 82°
2026-05-05 17:04 25.13589 -80.13817 3524 ft 149 kts 82°
2026-05-05 17:05 25.13709 -80.12657 3639 ft 154 kts 83°
2026-05-05 17:05 25.13831 -80.11495 3883 ft 152 kts 82°
2026-05-05 17:05 25.13951 -80.10348 4124 ft 149 kts 83°
2026-05-05 17:05 25.14070 -80.09220 4364 ft 147 kts 83°
2026-05-05 17:06 25.14186 -80.08107 4609 ft 145 kts 82°
2026-05-05 17:06 25.14301 -80.07012 4852 ft 143 kts 83°
2026-05-05 17:06 25.14414 -80.05928 5084 ft 141 kts 83°
2026-05-05 17:06 25.14530 -80.04827 5226 ft 149 kts 82°
2026-05-05 17:07 25.14650 -80.03669 5350 ft 155 kts 82°
2026-05-05 17:07 25.14774 -80.02467 5479 ft 160 kts 83°
2026-05-05 17:07 25.14904 -80.01218 5522 ft 169 kts 83°
2026-05-05 17:07 25.15041 -79.99899 5531 ft 177 kts 83°
2026-05-05 17:08 25.15183 -79.98522 5530 ft 183 kts 83°
2026-05-05 17:08 25.15327 -79.97139 5533 ft 185 kts 83°
2026-05-05 17:08 25.15474 -79.95719 5532 ft 187 kts 83°
2026-05-05 17:08 25.15622 -79.94289 5533 ft 188 kts 83°
2026-05-05 17:09 25.15771 -79.92850 5539 ft 189 kts 83°
2026-05-05 17:09 25.15922 -79.91407 5539 ft 189 kts 82°
2026-05-05 17:09 25.16182 -79.89981 5539 ft 190 kts 75°
2026-05-05 17:09 25.16500 -79.88566 5535 ft 190 kts 75°
2026-05-05 17:10 25.16828 -79.87147 5538 ft 190 kts 73°
2026-05-05 17:10 25.17186 -79.85740 5539 ft 191 kts 72°
2026-05-05 17:10 25.17549 -79.84331 5538 ft 191 kts 72°
2026-05-05 17:10 25.17911 -79.82921 5539 ft 191 kts 73°
2026-05-05 17:11 25.18271 -79.81506 5537 ft 191 kts 74°
2026-05-05 17:11 25.18484 -79.80077 5542 ft 192 kts 84°
2026-05-05 17:11 25.18565 -79.78611 5539 ft 192 kts 87°
2026-05-05 17:11 25.18615 -79.77142 5539 ft 191 kts 88°
2026-05-05 17:12 25.18661 -79.75676 5536 ft 191 kts 88°
2026-05-05 17:12 25.18708 -79.74212 5536 ft 191 kts 88°
2026-05-05 17:12 25.18755 -79.72748 5536 ft 191 kts 88°
2026-05-05 17:12 25.18801 -79.71285 5536 ft 191 kts 88°
2026-05-05 17:13 25.18848 -79.69822 5536 ft 191 kts 88°
2026-05-05 17:13 25.18895 -79.68358 5536 ft 191 kts 87°
2026-05-05 17:13 25.18942 -79.66892 5536 ft 191 kts 88°
2026-05-05 17:13 25.18989 -79.65426 5536 ft 190 kts 88°
2026-05-05 17:14 25.19036 -79.63970 5532 ft 190 kts 87°
2026-05-05 17:14 25.19084 -79.62527 5533 ft 191 kts 87°
2026-05-05 17:14 25.19133 -79.61060 5534 ft 192 kts 87°
2026-05-05 17:14 25.19180 -79.59589 5470 ft 193 kts 87°
2026-05-05 17:15 25.19227 -79.58094 5339 ft 196 kts 88°
2026-05-05 17:15 25.19276 -79.56585 5220 ft 197 kts 88°
2026-05-05 17:15 25.19325 -79.55070 5101 ft 197 kts 87°
2026-05-05 17:15 25.19411 -79.53560 4980 ft 196 kts 83°
2026-05-05 17:16 25.19359 -79.52062 4863 ft 196 kts 99°
2026-05-05 17:16 25.19110 -79.50586 4741 ft 195 kts 101°
2026-05-05 17:16 25.19076 -79.49098 4611 ft 194 kts 85°
2026-05-05 17:16 25.19202 -79.47613 4487 ft 194 kts 83°
2026-05-05 17:17 25.19337 -79.46147 4370 ft 194 kts 83°
2026-05-05 17:17 25.19476 -79.44657 4248 ft 196 kts 83°
2026-05-05 17:17 25.19614 -79.43170 4130 ft 193 kts 83°
2026-05-05 17:17 25.19750 -79.41706 4028 ft 190 kts 83°
2026-05-05 17:18 25.19882 -79.40259 3930 ft 189 kts 83°
2026-05-05 17:18 25.20015 -79.38824 3831 ft 187 kts 83°
2026-05-05 17:18 25.20144 -79.37397 3734 ft 186 kts 83°
2026-05-05 17:18 25.20263 -79.36074 3643 ft 186 kts 83°
2026-05-05 17:19 25.20389 -79.34676 3543 ft 185 kts 83°
2026-05-05 17:19 25.20514 -79.33266 3451 ft 184 kts 83°
2026-05-05 17:19 25.20641 -79.31855 3356 ft 185 kts 83°
2026-05-05 17:19 25.20767 -79.30445 3260 ft 185 kts 83°
2026-05-05 17:20 25.20894 -79.29030 3160 ft 185 kts 83°
2026-05-05 17:20 25.21020 -79.27616 3062 ft 185 kts 83°
2026-05-05 17:20 25.21137 -79.26201 2962 ft 185 kts 84°
2026-05-05 17:20 25.21232 -79.24782 2840 ft 185 kts 84°
2026-05-05 17:21 25.21317 -79.23366 2728 ft 184 kts 85°
2026-05-05 17:21 25.21394 -79.21961 2610 ft 183 kts 85°
2026-05-05 17:21 25.21476 -79.20575 2484 ft 183 kts 86°
2026-05-05 17:22 25.21743 -79.17761 2128 ft 184 kts 81°
2026-05-05 17:22 25.21976 -79.16388 1989 ft 181 kts 73°
2026-05-05 17:22 25.22582 -79.15214 1857 ft 178 kts 43°
2026-05-05 17:22 25.23677 -79.14584 1615 ft 181 kts 15°
2026-05-05 17:23 25.24894 -79.14324 1506 ft 177 kts
2026-05-05 17:23 25.26130 -79.14375 1319 ft 178 kts 355°
2026-05-05 17:23 25.27302 -79.14716 1216 ft 177 kts 339°
2026-05-05 17:23 25.28455 -79.15232 1122 ft 178 kts 338°
2026-05-05 17:24 25.29586 -79.15733 1123 ft 174 kts 338°
2026-05-05 17:24 25.30703 -79.16204 1062 ft 174 kts 340°
2026-05-05 17:24 25.31834 -79.16640 1073 ft 171 kts 342°
2026-05-05 17:24 25.32964 -79.17057 1031 ft 172 kts 342°
2026-05-05 17:25 25.34134 -79.17327 1011 ft 171 kts 355°
2026-05-05 17:25 25.34532 -79.17376 1010 ft 170 kts 353°
2026-05-05 17:25 25.36414 -79.17861 1060 ft 167 kts 344°
2026-05-05 17:25 25.37525 -79.18239 1060 ft 167 kts 340°
2026-05-05 17:26 25.38611 -79.18683 1072 ft 166 kts 340°
2026-05-05 17:26 25.39332 -79.18967 1075 ft 167 kts 341°
2026-05-05 17:26 25.40437 -79.19365 1070 ft 167 kts 343°
2026-05-05 17:26 25.41562 -79.19682 1078 ft 167 kts 352°
2026-05-05 17:27 25.42720 -79.19624 1059 ft 168 kts 13°
2026-05-05 17:27 25.44232 -79.19230 1021 ft 169 kts 14°
2026-05-05 17:27 25.45356 -79.18908 1013 ft 168 kts 22°
2026-05-05 17:27 25.46469 -79.18819 1041 ft 164 kts 340°
2026-05-05 17:28 25.47110 -79.19264 1016 ft 166 kts 319°
2026-05-05 17:28 25.47875 -79.20224 1031 ft 165 kts 309°
2026-05-05 17:28 25.48603 -79.21197 1077 ft 164 kts 311°
2026-05-05 17:28 25.49354 -79.22151 1086 ft 164 kts 312°
2026-05-05 17:29 25.50123 -79.23073 1138 ft 163 kts 316°
2026-05-05 17:29 25.51002 -79.23867 1158 ft 163 kts 324°
2026-05-05 17:29 25.51919 -79.24602 1208 ft 162 kts 325°
2026-05-05 17:29 25.53142 -79.25547 1237 ft 163 kts 324°
2026-05-05 17:30 25.53770 -79.26035 1245 ft 163 kts 328°
2026-05-05 17:30 25.54762 -79.26649 1246 ft 164 kts 333°
2026-05-05 17:30 25.55753 -79.27256 1289 ft 162 kts 329°
2026-05-05 17:30 25.56716 -79.27865 1281 ft 162 kts 340°
2026-05-05 17:31 25.57697 -79.28182 1808 ft 135 kts 354°
2026-05-05 17:31 25.58603 -79.28199 2194 ft 126 kts
2026-05-05 17:31 25.59479 -79.28134 2465 ft 127 kts
2026-05-05 17:31 25.60340 -79.28050 2811 ft 122 kts
2026-05-05 17:32 25.61181 -79.27940 3091 ft 122 kts
2026-05-05 17:32 25.62023 -79.27836 3363 ft 121 kts
2026-05-05 17:32 25.62852 -79.27709 3625 ft 121 kts
2026-05-05 17:32 25.63684 -79.27538 3861 ft 122 kts
2026-05-05 17:33 25.64510 -79.27354 4098 ft 124 kts 11°
2026-05-05 17:33 25.65343 -79.27105 4343 ft 124 kts 12°
2026-05-05 17:33 25.66180 -79.26855 4589 ft 125 kts 12°
2026-05-05 17:33 25.67018 -79.26590 4836 ft 125 kts 13°
2026-05-05 17:34 25.67866 -79.26320 5040 ft 129 kts 12°
2026-05-05 17:34 25.68736 -79.26050 5252 ft 130 kts 12°
2026-05-05 17:34 25.69621 -79.25899 5470 ft 127 kts 355°
2026-05-05 17:34 25.70458 -79.25603 5677 ft 135 kts 42°
2026-05-05 17:35 25.70829 -79.24645 5892 ft 137 kts 70°
2026-05-05 17:35 25.71341 -79.23788 6110 ft 132 kts 38°
2026-05-05 17:35 25.72092 -79.23235 6334 ft 130 kts 29°
2026-05-05 17:35 25.72851 -79.22712 6531 ft 131 kts 27°
2026-05-05 17:36 25.73639 -79.22193 6721 ft 132 kts 26°
2026-05-05 17:36 25.74441 -79.21677 6910 ft 134 kts 25°
2026-05-05 17:36 25.75256 -79.21162 7072 ft 137 kts 24°
2026-05-05 17:36 25.76103 -79.20631 7197 ft 143 kts 25°
2026-05-05 17:37 25.76979 -79.20076 7322 ft 147 kts 25°
2026-05-05 17:37 25.77877 -79.19506 7451 ft 150 kts 25°
2026-05-05 17:37 25.78796 -79.18922 7529 ft 156 kts 25°
2026-05-05 17:37 25.79769 -79.18303 7539 ft 166 kts 25°
2026-05-05 17:38 25.80779 -79.17661 7544 ft 173 kts 25°
2026-05-05 17:38 25.81839 -79.16985 7543 ft 178 kts 26°
2026-05-05 17:38 25.82925 -79.16293 7542 ft 182 kts 26°
2026-05-05 17:38 25.84029 -79.15590 7540 ft 184 kts 26°
2026-05-05 17:39 25.85143 -79.14881 7548 ft 186 kts 26°
2026-05-05 17:39 25.86266 -79.14166 7545 ft 186 kts 26°
2026-05-05 17:39 25.87391 -79.13447 7544 ft 186 kts 26°
2026-05-05 17:39 25.88515 -79.12732 7542 ft 186 kts 26°
2026-05-05 17:40 25.89642 -79.12015 7543 ft 187 kts 26°
2026-05-05 17:40 25.90768 -79.11299 7544 ft 187 kts 26°
2026-05-05 17:40 25.91894 -79.10581 7544 ft 187 kts 26°
2026-05-05 17:40 25.93023 -79.09862 7545 ft 187 kts 26°
2026-05-05 17:41 25.94152 -79.09142 7543 ft 187 kts 26°
2026-05-05 17:41 25.95265 -79.08432 7544 ft 187 kts 26°
2026-05-05 17:41 25.96392 -79.07713 7544 ft 187 kts 26°
2026-05-05 17:41 25.97522 -79.06993 7546 ft 187 kts 26°
2026-05-05 17:42 25.98649 -79.06274 7546 ft 187 kts 26°
2026-05-05 17:42 25.99775 -79.05555 7545 ft 187 kts 26°
2026-05-05 17:42 26.00902 -79.04836 7545 ft 187 kts 26°
2026-05-05 17:42 26.02037 -79.04112 7490 ft 190 kts 26°
2026-05-05 17:43 26.03204 -79.03367 7350 ft 197 kts 26°
2026-05-05 17:43 26.04403 -79.02600 7189 ft 200 kts 27°
2026-05-05 17:43 26.05617 -79.01824 7025 ft 202 kts 27°
2026-05-05 17:43 26.06839 -79.01042 6863 ft 203 kts 27°
2026-05-05 17:44 26.08062 -79.00260 6700 ft 202 kts 27°
2026-05-05 17:44 26.09259 -78.99494 6540 ft 200 kts 27°
2026-05-05 17:44 26.10462 -78.98725 6371 ft 199 kts 27°
2026-05-05 17:44 26.11657 -78.97961 6198 ft 197 kts 27°
2026-05-05 17:45 26.12846 -78.97201 6021 ft 197 kts 27°
2026-05-05 17:45 26.14034 -78.96441 5839 ft 197 kts 27°
2026-05-05 17:45 26.15218 -78.95683 5642 ft 196 kts 28°
2026-05-05 17:45 26.16393 -78.94931 5446 ft 194 kts 28°
2026-05-05 17:46 26.17560 -78.94183 5252 ft 193 kts 28°
2026-05-05 17:46 26.18722 -78.93439 5059 ft 192 kts 29°
2026-05-05 17:46 26.19878 -78.92698 4867 ft 191 kts 29°
2026-05-05 17:46 26.21029 -78.91960 4670 ft 191 kts 30°
2026-05-05 17:47 26.22176 -78.91225 4471 ft 189 kts 30°
2026-05-05 17:47 26.23303 -78.90502 4270 ft 186 kts 30°
2026-05-05 17:47 26.24402 -78.89798 4075 ft 184 kts 30°
2026-05-05 17:47 26.25510 -78.89087 3879 ft 183 kts 31°
2026-05-05 17:48 26.26612 -78.88380 3690 ft 182 kts 31°
2026-05-05 17:48 26.27704 -78.87679 3509 ft 180 kts 31°
2026-05-05 17:48 26.28785 -78.86986 3349 ft 178 kts 32°
2026-05-05 17:48 26.29853 -78.86300 3177 ft 176 kts 32°
2026-05-05 17:49 26.30915 -78.85618 3006 ft 176 kts 32°
2026-05-05 17:49 26.31975 -78.84937 2834 ft 176 kts 32°
2026-05-05 17:49 26.33032 -78.84259 2672 ft 175 kts 33°
2026-05-05 17:49 26.34086 -78.83581 2493 ft 175 kts 33°
2026-05-05 17:50 26.35140 -78.82902 2321 ft 175 kts 32°
2026-05-05 17:50 26.36167 -78.82242 2218 ft 171 kts 33°
2026-05-05 17:50 26.37198 -78.81591 2098 ft 170 kts 32°
2026-05-05 17:50 26.38230 -78.80935 1900 ft 172 kts 33°
2026-05-05 17:51 26.39265 -78.80286 1751 ft 169 kts 33°
2026-05-05 17:51 26.40300 -78.79686 1615 ft 165 kts 32°
2026-05-05 17:51 26.41316 -78.79115 1527 ft 163 kts 30°
2026-05-05 17:51 26.42327 -78.78560 1429 ft 162 kts 29°
2026-05-05 17:52 26.43341 -78.78035 1371 ft 158 kts 28°
2026-05-05 17:52 26.44333 -78.77536 1311 ft 155 kts 27°
2026-05-05 17:52 26.45316 -78.77055 1234 ft 155 kts 29°
2026-05-05 17:52 26.46235 -78.76459 1194 ft 151 kts 37°
2026-05-05 17:53 26.47106 -78.75815 1172 ft 150 kts 37°
2026-05-05 17:53 26.47963 -78.75241 1172 ft 140 kts 28°
2026-05-05 17:53 26.48858 -78.74901 1137 ft 128 kts 21°
2026-05-05 17:53 26.49655 -78.74645 1069 ft 112 kts 20°
2026-05-05 17:54 26.50367 -78.74452 958 ft 103 kts 14°
2026-05-05 17:54 26.51071 -78.74354 917 ft 100 kts 14°
2026-05-05 17:54 26.51767 -78.74267 821 ft 102 kts 12°
2026-05-05 17:54 26.52469 -78.74182 744 ft 98 kts 14°
2026-05-05 17:55 26.53122 -78.74042 672 ft 96 kts 24°
2026-05-05 17:55 26.53702 -78.73676 638 ft 96 kts 46°
2026-05-05 17:55 26.54105 -78.73098 503 ft 92 kts 64°
2026-05-05 17:55 26.54411 -78.72479 418 ft 89 kts 64°
2026-05-05 17:56 26.54698 -78.71911 286 ft 82 kts 68°
2026-05-05 17:56 26.54966 -78.71364 154 ft 79 kts 69°
2026-05-05 17:56 26.55232 -78.70831 56 ft 78 kts 68°
2026-05-05 17:56 26.55480 -78.70333 21 ft 62 kts 61°
2026-05-05 17:57 26.55635 -78.70021 18 ft 34 kts 61°
2026-05-05 17:57 26.55752 -78.69791 17 ft 35 kts 60°
2026-05-05 17:57 26.55848 -78.69599 18 ft 23 kts 60°
2026-05-05 17:57 26.55867 -78.69460 18 ft 17 kts 124°
2026-05-05 17:58 26.55761 -78.69463 18 ft 20 kts 214°
2026-05-05 17:58 26.55642 -78.69586 18 ft 25 kts 223°
2026-05-05 17:58 26.55511 -78.69712 18 ft 28 kts 221°
2026-05-05 17:58 26.55356 -78.69862 18 ft 29 kts 220°
2026-05-05 17:59 26.55204 -78.70008 18 ft 32 kts 221°
2026-05-05 17:59 26.55048 -78.70161 18 ft 22 kts 220°
2026-05-05 17:59 26.54971 -78.70233 18 ft 9 kts 216°
2026-05-05 17:59 26.54919 -78.70229 18 ft 8 kts 113°
2026-05-05 18:00 26.54912 -78.70145 18 ft 13 kts 91°
2026-05-05 18:00 26.54904 -78.70055 18 ft 12 kts 128°
2026-05-05 18:00 26.54841 -78.70035 18 ft 8 kts 178°
2026-05-05 18:00 26.54789 -78.70037 18 ft 5 kts 217°
2026-05-05 18:01 26.54785 -78.70059 18 ft 1 kts 275°